1st Responders/1st Detectors/Storm Spotters Weather Summary for Harrison County, KY

Forecast Maps


Reg. NEXRAD Animation


National Fire Danger: Day 1 & 2 Map

Current NWS Watch/Warnings

SPC Convective Day 1 Outlook


Day 2 Outlook

(Click images to enlarge|Page will refresh every 5 minutes)
UK Ag. Weather Center Desktop Severe Weather Service[HERE]
Harrison County, KY Hazardous Weather Outlook Webcast
(9 AM to 9 PM Mon-Fri)
[Fast]
[Dial-up]


UKAWC 1st Detectors/1st Responders Precision Weather Forecast For HARRISON County, Kentucky
(based on the NWS County Digital Forecast)

ISSUED AT 02:00 UTC ON WEDNESDAY AUG 23 2017
DAY TUE WEDNESDAY
EDT 3HR 11P MIDN 1A 2A 3A 4A 5A 6A 7A 8A 9A 10A 11A NOON 1P 2P 3P 4P 5P 6P 7P
MAX/MIN -- -- -- -- -- -- -- -- -- 61° -- -- -- -- -- -- -- -- -- -- 76°
TEMP 70° 70° 70° 68° 67° 65° 65° 63° 61° 61° 63° 65° 68° 72° 74° 74° 76° 76° 76° 74° 72°
SKY COVER 75% 74% 79% 79% 70% 56% 43% 37% 29% 23% 20% 13% 10% 10% 11% 11% 11% 10% 10% 11% 14%
Clouds
DEW PT 68° 68° 67° 67° 65° 63° 63° 61° 61° 59° 59° 58° 58° 58° 56° 56° 56° 54° 54° 56° 56°
RH 93% 96% 93% 93% 93% 92% 93% 96% 96% 96% 89% 78% 67% 60% 55% 52% 48% 46% 46% 52% 54%
POP 12HR -- -- -- -- -- -- -- -- -- 36% -- -- -- -- -- -- -- -- -- -- --
RAIN/SNOW (liq.equ) -- -- -- 0.04in -- -- -- -- -- 0.00in -- -- -- -- -- 0.00in -- -- -- -- --
SNOWFALL -- -- -- 0in -- -- -- -- -- 0in -- -- -- -- -- 0in -- -- -- -- --
WIND SPEED(MPH) 5 5 6 6 6 5 5 5 5 2 2 5 6 6 6 6 6 6 6 5 5
WIND Gust(MPH) 6 7 7 7 7 6 6 6 6 5 6 7 7 7 7 7 8 8 7 7 7
WIND DIR NW NW NW N N N N N N N N N N N N N N NW NW NW NW
DEW Mod Dew Mod Dew Mod Dew Mod Dew Mod Dew Mod Dew Mod Dew Mod Dew Mod Dew Hvy Dew Hvy Dew Lgt Dew -- -- -- -- -- -- -- -- --
HeatIndex 70 70 70 68 67 65 65 63 61 61 63 65 68 72 74 74 76 76 76 74 72
Rain Showers -- -- -- -- -- -- -- -- -- -- -- -- -- -- -- -- -- -- -- -- --
Thunder Storm -- -- -- -- -- -- -- -- -- -- -- -- -- -- -- -- -- -- -- -- --
WIND CHILL -- -- -- -- -- -- -- -- -- -- -- -- -- -- -- -- -- -- -- -- --
SPRAY COND
DRY COND
LIVESTOCK HEATSTRESS 69.57 69.75 69.57 67.65 66.68 64.73 64.76 62.91 60.95 60.95 62.75 64.25 66.33 69.10 70.24 69.99 71.08 70.89 70.89 69.99 68.66



DAY THURSDAY FRIDAY SATURDAY SUNDAY MONDAY TUESDAY
EDT 6HR 8P 9P 10P 11P MIDN 1A 2A 3A 4A 5A 6A 7A 8A 9A 10A 11A 2P 5P 8P 11P 2A 5A 8A 11A 2P 5P 8P 2A 8A 2P 8P 2A 8A 2P 8P 2A 8A 2P 8P 2A 8A 2P 8P
MAX/MIN -- -- -- -- -- -- -- -- -- -- -- -- 56° -- -- -- -- 76° -- -- -- -- 52° -- -- 76° -- -- 54° 76° -- -- 56° 77° -- -- 59° 77° -- -- 61° 76° --
TEMP 70° 67° 65° 63° 61° 61° 59° 58° 58° 56° 56° 56° 56° 61° 65° 68° 74° 76° 67° 61° 58° 54° 54° 67° 74° 76° 68° 59° 56° 76° 70° 61° 56° 76° 72° 63° 61° 76° 72° 63° 61° 76° 70°
SKY COVER 12% 11% 9% 8% 8% 8% 9% 8% 8% 8% 9% 10% 11% 12% 12% 12% 24% 24% 16% 9% 10% 7% 9% 14% 22% 21% 16% 26% 35% 29% 29% 33% 47% 43% 43% 50% 61% 63% 64% 73% 69% 69% 63%
Clouds
DEW PT 56° 56° 56° 56° 56° 56° 56° 54° 54° 54° 54° 54° 54° 54° 56° 56° 52° 52° 54° 52° 52° 50° 50° 52° 52° 52° 54° 52° 52° 52° 54° 52° 52° 56° 58° 58° 58° 61° 59° 58° 58° 61° 61°
RH 61% 65% 70% 74% 80% 83% 86% 86% 90% 92% 96% 96% 93% 80% 73% 62% 46% 44% 60% 72% 80% 89% 86% 56% 48% 45% 58% 78% 83% 44% 57% 74% 86% 49% 63% 86% 92% 57% 63% 83% 90% 59% 73%
POP 12HR 4% -- -- -- -- -- -- -- -- -- -- -- 2% -- -- -- -- -- 2% -- -- -- 2% -- -- -- 0% -- 2% -- 2% -- 5% -- 7% -- 17% -- 24% -- 28% -- 35%
RAIN/SNOW (liq.equ) 0.00in -- -- -- -- -- 0.00in -- -- -- -- -- 0.00in -- -- -- 0.00in -- 0.00in -- 0.00in -- 0.00in -- 0.00in -- 0.00in -- -- -- -- -- -- -- -- -- -- -- -- -- -- -- --
SNOWFALL 0in -- -- -- -- -- 0in -- -- -- -- -- 0in -- -- -- 0in -- 0in -- 0in -- 0in -- 0in -- 0in -- -- -- -- -- -- -- -- -- -- -- -- -- -- -- --
WIND SPEED(MPH) 5 2 2 2 2 2 2 2 2 2 2 2 2 5 5 6 7 7 5 2 2 1 2 5 7 7 5 6 5 7 7 5 5 7 6 5 5 7 6 6 6 10 7
WIND DIR NW NW NW NW N N N N N N N N N N N N N N N N NE NE NE NE NE NE NE NE NE NE NE NE NE NE NE E E E E E E E E
HeatIndex 70 67 65 63 61 61 59 58 58 56 56 56 56 61 65 68 74 76 67 61 58 54 54 67 74 76 68 59 56 76 70 61 56 76 72 63 61 76 72 63 61 76 70
Rain Showers -- -- -- -- -- -- -- -- -- -- -- -- -- -- -- -- -- -- -- -- -- -- -- -- -- -- -- -- -- -- -- -- -- -- -- Slight Chance Slight Chance Slight Chance -- Chance Chance Chance Chance
Thunder Storm -- -- -- -- -- -- -- -- -- -- -- -- -- -- -- -- -- -- -- -- -- -- -- -- -- -- -- -- -- -- -- -- -- -- -- Slight Chance Slight Chance Slight Chance -- Chance Chance Chance Chance
WIND CHILL -- -- -- -- -- -- -- -- -- -- -- -- -- -- -- -- -- -- -- -- -- -- -- -- -- -- -- -- -- -- -- -- -- -- -- -- -- -- -- -- -- -- --
SPRAY COND
DRY COND
LIVESTOCK HEATSTRESS 67.60 65.42 63.98 62.40 60.76 60.79 58.98 58.06 58.04 56.12 56.06 56.06 56.11 60.76 64.08 66.08 69.49 70.70 65.20 60.66 58.09 54.29 54.37 65.02 69.65 70.80 65.87 58.98 56.26 70.70 67.35 60.69 56.22 71.18 69.31 62.68 60.90 71.93 69.31 62.61 60.88 72.12 68.34

Click on individual weather variable above in left-hand column (ie., TEMP, RH, QPF 12HR) to view state forecast maps






NWS 48 Hr. Forecast Maps,

Regional Hourly Observations For HARRISON County, Kentucky
Issued at 1000 PM EDT TUE AUG 22 2017
NORTHEAST KENTUCKY
  
CITY           SKY/WX    TMP DP  RH WIND       PRES   REMARKS
LEXINGTON      CLOUDY    72  69  90 SW5       29.97S                  
COVINGTON      CLOUDY    72  72 100 SW3       29.94R                  
FRANKFORT      CLOUDY    72  68  87 SW3       29.95R                  


Current NOWCAST not available:
Nowcasts are not issued routinely during fair weather. Only when
precipitation or other significant weather is occuring in this county will these
forecasts be issued. Currently, there is no short term forecast in effect.


Fire Weather Forecast For HARRISON County, KY
Provided by the National Weather Service:

Issued at: Tue Aug 22 22:05:01 EDT 2017


                      Today        Tonight      Wed          

CLOUD COVER           PCldy        MCldy        MClear       
PRECIP TYPE           tstms        tstms        NONE         
CHANCE PRECIP (%)     70           60           0            
TEMP (24H TREND)      87 (-4)      63 (-8)      78           
RH % (24H TREND)      57 (+13)     99 (+9)      44           
20FTWND-VAL/AM(MPH)   SW  6                     N  5         
20FTWND-RDG/PM(MPH)   SW  8        W  5         N  5         
PRECIP AMOUNT         0.24         0.19         0.00         
MIXING HGT(FT-AGL/MSL)7124                      6273         
TRANSPORT WND (MPH)   SW 22                     NW 10        
VENT RATE (KT-FT)     172650                    60382        
DISPERSION            Excellent                 Good         
DSI                   SLGT UNSTBL  SLGT UNSTBL  SLGT UNSTBL  
LAL                   4            4            2            
HAINES INDEX          3            2            2            
ADI EARLY             81 GOOD      24 FAIR      40 FAIR      
ADI LATE              80 GOOD      9 POOR       44 GEN GOOD  
MAX LVORI EARLY       5            6            5            
MAX LVORI LATE        2            6            1            

REMARKS...ADI IS ATMOSPHERIC DISPERSION INDEX BY LAVDAS.        
LVORI IS LOW VISIBILITY OCCURRENCE RISK INDEX.

.THURSDAY...Mostly clear. Lows in the upper 50s. Highs in the mid
70s. North winds around 5 mph. 
.FRIDAY...Mostly clear. Lows in the mid 50s. Highs in the upper
70s. North winds around 5 mph. 
.SATURDAY...Partly cloudy. Lows in the mid 50s. Highs in the
upper 70s. Northeast winds around 5 mph. 
.SUNDAY...Partly cloudy. Lows in the upper 50s. Highs in the
upper 70s. Northeast winds up to 5 mph. 
.MONDAY...Mostly cloudy. A 40 percent chance of showers and
thunderstorms. Lows around 60. Highs in the upper 70s. East winds
around 5 mph. 

SPC's Fire Weather Web Tool (Excellent!), SPC's Fire Weather Outlooks, NWS Fire Weather WEB, Fire Danger Class Map,
Keetch-Byram Drought Index, ROMAN Web, Haines Index ,
WFAS's 10-hr Dead Fuel Moist., WFAS's 100-hr Dead Fuel Moist., Probablity of Ignition, Visual blackness Map, Palmer Drought Index, HPC's Rainfall Forecast Maps


Hazardous Weather Outlook For HARRISON County, Kentucky
923 PM EDT Tue Aug 22 2017 /823 PM CDT Tue Aug 22 2017/

 DAY ONE  Tonight.

No hazardous weather is expected at this time.

 DAYS TWO THROUGH SEVEN  Wednesday through Monday.

No hazardous weather is expected at this time.

 SPOTTER INFORMATION STATEMENT  

Spotter activation is not anticipated.

Latest HARRISON County, Kentucky Watches, Warnings and Advisories.
Additional Drought Info.: UKAWC Drought Page, Kentucky Drought Watch


7-Day Forecast For HARRISON County, KY

OVERNIGHT
Mostly cloudy. Lows in the lower 60s. West winds up to 5 mph shifting to the north around 5 mph after midnight.

WEDNESDAY
Mostly sunny. Highs in the upper 70s. North winds up to 5 mph.

WEDNESDAY NIGHT
Mostly clear. Lows in the mid 50s. North winds up to 5 mph.

THURSDAY
Mostly sunny. Highs in the mid 70s. North winds up to 10 mph.

THURSDAY NIGHT
Mostly clear. Lows in the lower 50s. North winds up to 5 mph.

FRIDAY
Mostly sunny. Highs in the mid 70s.

FRIDAY NIGHT
Mostly clear. Lows in the mid 50s.

SATURDAY
Partly cloudy. Highs in the upper 70s.

SATURDAY NIGHT
Partly cloudy. Lows in the mid 50s.

SUNDAY
Partly cloudy. Highs in the upper 70s.

SUNDAY NIGHT
Partly cloudy with a 20 percent chance of showers and thunderstorms. Lows around 60.

MONDAY
Partly cloudy with a 20 percent chance of showers and thunderstorms. Highs in the upper 70s.

MONDAY NIGHT
Mostly cloudy with a 30 percent chance of showers and thunderstorms. Lows in the lower 60s.

TUESDAY
Partly cloudy with a 40 percent chance of showers and thunderstorms. Highs in the upper 70s.

Ag Weather Center, Department of Biosystems & Agricultural Engineering, University of Kentucky